Year,Month,Day,Hour,Minute,Value (Times are PST for temperature in C)
2014,09,12,11,08,13.40
2014,09,12,11,09,13.40
2014,09,12,11,10,13.40
2014,09,12,11,11,13.40
2014,09,12,11,12,13.40
2014,09,12,11,13,13.40
2014,09,12,11,14,13.40
2014,09,12,11,15,13.40
2014,09,12,11,16,13.40
2014,09,12,11,17,13.40
2014,09,12,11,18,13.40
2014,09,12,11,19,13.40
2014,09,12,11,20,13.40
2014,09,12,11,21,13.40
2014,09,12,11,22,13.40
2014,09,12,11,23,13.40
2014,09,12,11,24,13.40
2014,09,12,11,25,13.40
2014,09,12,11,26,13.40
2014,09,12,11,27,13.40
2014,09,12,11,28,13.40
2014,09,12,11,29,13.40
2014,09,12,11,30,13.40
2014,09,12,11,31,13.40
2014,09,12,11,32,13.40
2014,09,12,11,33,13.40
2014,09,12,11,34,13.40
2014,09,12,11,35,13.40
2014,09,12,11,36,13.40
2014,09,12,11,37,13.40
2014,09,12,11,38,13.40
2014,09,12,11,39,14.40
2014,09,12,11,40,14.40
2014,09,12,11,41,14.40
2014,09,12,11,42,14.40
2014,09,12,11,43,14.40
2014,09,12,11,44,14.40
2014,09,12,11,45,14.40
2014,09,12,11,46,14.40
2014,09,12,11,47,14.40
2014,09,12,11,48,14.40
2014,09,12,11,49,14.40
2014,09,12,11,50,14.40
2014,09,12,11,51,14.40
2014,09,12,11,52,14.40
2014,09,12,11,53,14.40
2014,09,12,11,54,14.40
2014,09,12,11,55,14.40
2014,09,12,11,56,14.40
2014,09,12,11,57,14.40
2014,09,12,11,58,14.40
2014,09,12,11,59,14.40
2014,09,12,12,00,14.40
2014,09,12,12,01,14.40
2014,09,12,12,02,14.40
2014,09,12,12,03,14.40
2014,09,12,12,04,14.40
2014,09,12,12,05,14.40
2014,09,12,12,06,14.40
2014,09,12,12,07,14.40
2014,09,12,12,08,14.40
2014,09,12,12,09,13.90
2014,09,12,12,10,13.90
2014,09,12,12,11,13.90
2014,09,12,12,12,13.90
2014,09,12,12,13,13.90
2014,09,12,12,14,13.90
2014,09,12,12,15,13.90
2014,09,12,12,16,13.90
2014,09,12,12,17,13.90
2014,09,12,12,18,13.90
2014,09,12,12,19,13.90
2014,09,12,12,20,13.90
2014,09,12,12,21,13.90
2014,09,12,12,22,13.90
2014,09,12,12,23,13.90
2014,09,12,12,24,14.30
2014,09,12,12,25,14.30
2014,09,12,12,26,14.30
2014,09,12,12,27,14.30
2014,09,12,12,28,14.30
2014,09,12,12,29,14.30
2014,09,12,12,30,14.30
2014,09,12,12,31,14.30
2014,09,12,12,32,14.30
2014,09,12,12,33,14.30
2014,09,12,12,34,14.30
2014,09,12,12,35,14.30
2014,09,12,12,36,14.30
2014,09,12,12,37,14.30
2014,09,12,12,38,14.20
2014,09,12,12,39,14.20
2014,09,12,12,40,14.20
2014,09,12,12,41,14.20
2014,09,12,12,42,14.20
2014,09,12,12,43,14.20
2014,09,12,12,44,14.20
2014,09,12,12,45,14.20
2014,09,12,12,46,14.20
2014,09,12,12,47,14.20
2014,09,12,12,48,14.20
2014,09,12,12,49,14.20
2014,09,12,12,50,14.20
2014,09,12,12,51,14.20
2014,09,12,12,52,14.20
2014,09,12,12,53,14.00
2014,09,12,12,54,14.00
2014,09,12,12,55,14.00
2014,09,12,12,56,14.00
2014,09,12,12,57,14.00
2014,09,12,12,58,14.00
2014,09,12,12,59,14.00
2014,09,12,13,00,14.00
2014,09,12,13,01,14.00
2014,09,12,13,02,14.00
2014,09,12,13,03,14.00
2014,09,12,13,04,14.00
2014,09,12,13,05,14.00
2014,09,12,13,06,14.00
2014,09,12,13,07,14.00
2014,09,12,13,08,14.00
2014,09,12,13,09,14.20
2014,09,12,13,10,14.20
2014,09,12,13,11,14.20
2014,09,12,13,12,14.20
2014,09,12,13,13,14.20
2014,09,12,13,14,14.20
2014,09,12,13,15,14.20
2014,09,12,13,16,14.20
2014,09,12,13,17,14.20
2014,09,12,13,18,14.20
2014,09,12,13,19,14.20
2014,09,12,13,20,14.20
2014,09,12,13,21,14.20
2014,09,12,13,22,14.20
2014,09,12,13,23,14.20
2014,09,12,13,24,14.20
2014,09,12,13,25,14.20
2014,09,12,13,26,14.20
2014,09,12,13,27,14.20
2014,09,12,13,28,14.20
2014,09,12,13,29,14.20
2014,09,12,13,30,14.20
2014,09,12,13,31,14.20
2014,09,12,13,32,14.20
2014,09,12,13,33,14.20
2014,09,12,13,34,14.20
2014,09,12,13,35,14.20
2014,09,12,13,36,14.20
2014,09,12,13,37,14.20
2014,09,12,13,38,14.40
2014,09,12,13,39,14.40
2014,09,12,13,40,14.40
2014,09,12,13,41,14.40
2014,09,12,13,42,14.40
2014,09,12,13,43,14.40
2014,09,12,13,44,14.40
2014,09,12,13,45,14.40
2014,09,12,13,46,14.40
2014,09,12,13,47,14.40
2014,09,12,13,48,14.40
2014,09,12,13,49,14.40
2014,09,12,13,50,14.40
2014,09,12,13,51,14.40
2014,09,12,13,52,14.40
2014,09,12,13,53,14.40
2014,09,12,13,54,14.80
2014,09,12,13,55,14.80
2014,09,12,13,56,14.80
2014,09,12,13,57,14.80
2014,09,12,13,58,14.80
2014,09,12,13,59,14.80
2014,09,12,14,00,14.80
2014,09,12,14,01,14.80
2014,09,12,14,02,14.80
2014,09,12,14,03,14.80
2014,09,12,14,04,14.80
2014,09,12,14,05,14.80
2014,09,12,14,06,14.80
2014,09,12,14,07,14.80
2014,09,12,14,08,14.70
2014,09,12,14,09,14.70
2014,09,12,14,10,14.70
2014,09,12,14,11,14.70
2014,09,12,14,12,14.70
2014,09,12,14,13,14.70
2014,09,12,14,14,14.70
2014,09,12,14,15,14.70
2014,09,12,14,16,14.70
2014,09,12,14,17,14.70
2014,09,12,14,18,14.70
2014,09,12,14,19,14.70
2014,09,12,14,20,14.70
2014,09,12,14,21,14.70
2014,09,12,14,22,14.70
2014,09,12,14,23,14.70
2014,09,12,14,24,14.80
2014,09,12,14,25,14.80
2014,09,12,14,26,14.80
2014,09,12,14,27,14.80
2014,09,12,14,28,14.80
2014,09,12,14,29,14.80
2014,09,12,14,30,14.80
2014,09,12,14,31,14.80
2014,09,12,14,32,14.80
2014,09,12,14,33,14.80
2014,09,12,14,34,14.80
2014,09,12,14,35,14.80
2014,09,12,14,36,14.80
2014,09,12,14,37,14.80
2014,09,12,14,38,14.80
2014,09,12,14,39,14.80
2014,09,12,14,40,14.80
2014,09,12,14,41,14.80
2014,09,12,14,42,14.80
2014,09,12,14,43,14.80
2014,09,12,14,44,14.80
2014,09,12,14,45,14.80
2014,09,12,14,46,14.80
2014,09,12,14,47,14.80
2014,09,12,14,48,14.80
2014,09,12,14,49,14.80
2014,09,12,14,50,14.80
2014,09,12,14,51,14.80
2014,09,12,14,52,14.80
2014,09,12,14,53,14.80
2014,09,12,14,54,14.80
2014,09,12,14,55,14.80
2014,09,12,14,56,14.80
2014,09,12,14,57,14.80
2014,09,12,14,58,14.80
2014,09,12,14,59,14.80
2014,09,12,15,00,14.80
2014,09,12,15,01,14.80
2014,09,12,15,02,14.80
2014,09,12,15,03,14.80
2014,09,12,15,04,14.80
2014,09,12,15,05,14.80
2014,09,12,15,06,14.80
2014,09,12,15,07,14.80
2014,09,12,15,08,15.30
2014,09,12,15,09,15.30
2014,09,12,15,10,15.30
2014,09,12,15,11,15.30
2014,09,12,15,12,15.30
2014,09,12,15,13,15.30
2014,09,12,15,14,15.30
2014,09,12,15,15,15.30
2014,09,12,15,16,15.30
2014,09,12,15,17,15.30
2014,09,12,15,18,15.30
2014,09,12,15,19,15.30
2014,09,12,15,20,15.30
2014,09,12,15,21,15.30
2014,09,12,15,22,15.30
2014,09,12,15,23,15.30
2014,09,12,15,24,15.30
2014,09,12,15,25,15.30
2014,09,12,15,26,15.30
2014,09,12,15,27,15.30
2014,09,12,15,28,15.30
2014,09,12,15,29,15.30
2014,09,12,15,30,15.30
2014,09,12,15,31,15.30
2014,09,12,15,32,15.30
2014,09,12,15,33,15.30
2014,09,12,15,34,15.30
2014,09,12,15,35,15.30
2014,09,12,15,36,15.30
2014,09,12,15,37,15.30
2014,09,12,15,38,15.40
2014,09,12,15,39,15.40
2014,09,12,15,40,15.40
2014,09,12,15,41,15.40
2014,09,12,15,42,15.40
2014,09,12,15,43,15.40
2014,09,12,15,44,15.40
2014,09,12,15,45,15.40
2014,09,12,15,46,15.40
2014,09,12,15,47,15.40
2014,09,12,15,48,15.40
2014,09,12,15,49,15.40
2014,09,12,15,50,15.40
2014,09,12,15,51,15.40
2014,09,12,15,52,15.40
2014,09,12,15,53,15.40
2014,09,12,15,54,15.20
2014,09,12,15,55,15.20
2014,09,12,15,56,15.20
2014,09,12,15,57,15.20
2014,09,12,15,58,15.20
2014,09,12,15,59,15.20
2014,09,12,16,00,15.20
2014,09,12,16,01,15.20
2014,09,12,16,02,15.20
2014,09,12,16,03,15.20
2014,09,12,16,04,15.20
2014,09,12,16,05,15.20
2014,09,12,16,06,15.50
2014,09,12,16,07,15.50
2014,09,12,16,08,15.50
2014,09,12,16,09,15.50
2014,09,12,16,10,15.50
2014,09,12,16,11,15.50
2014,09,12,16,12,15.50
2014,09,12,16,13,15.50
2014,09,12,16,14,15.50
2014,09,12,16,15,15.50
2014,09,12,16,16,15.50
2014,09,12,16,17,15.50
2014,09,12,16,18,15.50
2014,09,12,16,19,15.50
2014,09,12,16,20,15.60
2014,09,12,16,21,15.60
2014,09,12,16,22,15.60
2014,09,12,16,23,15.60
2014,09,12,16,24,15.60
2014,09,12,16,25,15.60
2014,09,12,16,26,15.60
2014,09,12,16,27,15.60
2014,09,12,16,28,15.60
2014,09,12,16,29,15.60
2014,09,12,16,30,15.60
2014,09,12,16,31,15.60
2014,09,12,16,32,15.60
2014,09,12,16,33,15.60
2014,09,12,16,34,15.60
2014,09,12,16,35,15.60
2014,09,12,16,36,15.30
2014,09,12,16,37,15.30
2014,09,12,16,38,15.30
2014,09,12,16,39,15.30
2014,09,12,16,40,15.30
2014,09,12,16,41,15.30
2014,09,12,16,42,15.30
2014,09,12,16,43,15.30
2014,09,12,16,44,15.30
2014,09,12,16,45,15.30
2014,09,12,16,46,15.30
2014,09,12,16,47,15.30
2014,09,12,16,48,15.30
2014,09,12,16,49,15.30
2014,09,12,16,50,15.30
2014,09,12,16,51,15.30
2014,09,12,16,52,15.30
2014,09,12,16,53,15.30
2014,09,12,16,54,15.30
2014,09,12,16,55,15.30
2014,09,12,16,56,15.30
2014,09,12,16,57,15.30
2014,09,12,16,58,15.30
2014,09,12,16,59,15.30
2014,09,12,17,00,15.30
2014,09,12,17,01,15.30
2014,09,12,17,02,15.30
2014,09,12,17,03,15.30
2014,09,12,17,04,15.30
2014,09,12,17,05,15.30
2014,09,12,17,06,15.60
2014,09,12,17,07,15.60
2014,09,12,17,08,15.60
2014,09,12,17,09,15.60
2014,09,12,17,10,15.60
2014,09,12,17,11,15.60
2014,09,12,17,12,15.60
2014,09,12,17,13,15.60
2014,09,12,17,14,15.60
2014,09,12,17,15,15.60
2014,09,12,17,16,15.60
2014,09,12,17,17,15.60
2014,09,12,17,18,15.60
2014,09,12,17,19,15.60
2014,09,12,17,20,15.60
2014,09,12,17,21,15.30
2014,09,12,17,22,15.30
2014,09,12,17,23,15.30
2014,09,12,17,24,15.30
2014,09,12,17,25,15.30
2014,09,12,17,26,15.30
2014,09,12,17,27,15.30
2014,09,12,17,28,15.30
2014,09,12,17,29,15.30
2014,09,12,17,30,15.30
2014,09,12,17,31,15.30
2014,09,12,17,32,15.30
2014,09,12,17,33,15.30
2014,09,12,17,34,15.30
2014,09,12,17,35,15.30
2014,09,12,17,36,15.40
2014,09,12,17,37,15.40
2014,09,12,17,38,15.40
2014,09,12,17,39,15.40
2014,09,12,17,40,15.40
2014,09,12,17,41,15.40
2014,09,12,17,42,15.40
2014,09,12,17,43,15.40
2014,09,12,17,44,15.40
2014,09,12,17,45,15.40
2014,09,12,17,46,15.40
2014,09,12,17,47,15.40
2014,09,12,17,48,15.40
2014,09,12,17,49,15.40
2014,09,12,17,50,15.40
2014,09,12,17,51,15.50
2014,09,12,17,52,15.50
2014,09,12,17,53,15.50
2014,09,12,17,54,15.50
2014,09,12,17,55,15.50
2014,09,12,17,56,15.50
2014,09,12,17,57,15.50
2014,09,12,17,58,15.50
2014,09,12,17,59,15.50
2014,09,12,18,00,15.50
2014,09,12,18,01,15.50
2014,09,12,18,02,15.50
2014,09,12,18,03,15.50
2014,09,12,18,04,15.50
2014,09,12,18,05,15.50
2014,09,12,18,06,15.80
2014,09,12,18,07,15.80
2014,09,12,18,08,15.80
2014,09,12,18,09,15.80
2014,09,12,18,10,15.80
2014,09,12,18,11,15.80
2014,09,12,18,12,15.80
2014,09,12,18,13,15.80
2014,09,12,18,14,15.80
2014,09,12,18,15,15.80
2014,09,12,18,16,15.80
2014,09,12,18,17,15.80
2014,09,12,18,18,15.80
2014,09,12,18,19,15.80
2014,09,12,18,20,15.80
2014,09,12,18,21,15.40
2014,09,12,18,22,15.40
2014,09,12,18,23,15.40
2014,09,12,18,24,15.40
2014,09,12,18,25,15.40
2014,09,12,18,26,15.40
2014,09,12,18,27,15.40
2014,09,12,18,28,15.40
2014,09,12,18,29,15.40
2014,09,12,18,30,15.40
2014,09,12,18,31,15.40
2014,09,12,18,32,15.40
2014,09,12,18,33,15.40
2014,09,12,18,34,15.40
2014,09,12,18,35,15.40
2014,09,12,18,36,15.20
2014,09,12,18,37,15.20
2014,09,12,18,38,15.20
2014,09,12,18,39,15.20
2014,09,12,18,40,15.20
2014,09,12,18,41,15.20
2014,09,12,18,42,15.20
2014,09,12,18,43,15.20
2014,09,12,18,44,15.20
2014,09,12,18,45,15.20
2014,09,12,18,46,15.20
2014,09,12,18,47,15.20
2014,09,12,18,48,15.20
2014,09,12,18,49,15.20
2014,09,12,18,50,15.20
2014,09,12,18,51,14.70
2014,09,12,18,52,14.70
2014,09,12,18,53,14.70
2014,09,12,18,54,14.70
2014,09,12,18,55,14.70
2014,09,12,18,56,14.70
2014,09,12,18,57,14.70
2014,09,12,18,58,14.70
2014,09,12,18,59,14.70
2014,09,12,19,00,14.70
2014,09,12,19,01,14.70
2014,09,12,19,02,14.70
2014,09,12,19,03,14.70
2014,09,12,19,04,14.70
2014,09,12,19,05,14.70
2014,09,12,19,06,14.70
2014,09,12,19,07,14.70
2014,09,12,19,08,14.70
2014,09,12,19,09,14.70
2014,09,12,19,10,14.70
2014,09,12,19,11,14.70
2014,09,12,19,12,14.70
2014,09,12,19,13,14.70
2014,09,12,19,14,14.70
2014,09,12,19,15,14.70
2014,09,12,19,16,14.70
2014,09,12,19,17,14.70
2014,09,12,19,18,14.70
2014,09,12,19,19,14.70
2014,09,12,19,20,14.70
2014,09,12,19,21,15.10
2014,09,12,19,22,15.10
2014,09,12,19,23,15.10
2014,09,12,19,24,15.10
2014,09,12,19,25,15.10
2014,09,12,19,26,15.10
2014,09,12,19,27,15.10
2014,09,12,19,28,15.10
2014,09,12,19,29,15.10
2014,09,12,19,30,15.10
2014,09,12,19,31,15.10
2014,09,12,19,32,15.10
2014,09,12,19,33,15.10
2014,09,12,19,34,15.10
2014,09,12,19,35,15.10
2014,09,12,19,36,15.60
2014,09,12,19,37,15.60
2014,09,12,19,38,15.60
2014,09,12,19,39,15.60
2014,09,12,19,40,15.60
2014,09,12,19,41,15.60
2014,09,12,19,42,15.60
2014,09,12,19,43,15.60
2014,09,12,19,44,15.60
2014,09,12,19,45,15.60
2014,09,12,19,46,15.60
2014,09,12,19,47,15.60
2014,09,12,19,48,15.60
2014,09,12,19,49,15.60
2014,09,12,19,50,15.60
2014,09,12,19,51,15.60
2014,09,12,19,52,15.60
2014,09,12,19,53,15.60
2014,09,12,19,54,15.60
2014,09,12,19,55,15.60
2014,09,12,19,56,15.60
2014,09,12,19,57,15.60
2014,09,12,19,58,15.60
2014,09,12,19,59,15.60
2014,09,12,20,00,15.60
2014,09,12,20,01,15.60
2014,09,12,20,02,15.60
2014,09,12,20,03,15.60
2014,09,12,20,04,15.60
2014,09,12,20,05,15.60
2014,09,12,20,06,14.80
2014,09,12,20,07,14.80
2014,09,12,20,08,14.80
2014,09,12,20,09,14.80
2014,09,12,20,10,14.80
2014,09,12,20,11,14.80
2014,09,12,20,12,14.80
2014,09,12,20,13,14.80
2014,09,12,20,14,14.80
2014,09,12,20,15,14.80
2014,09,12,20,16,14.80
2014,09,12,20,17,14.80
2014,09,12,20,18,14.80
2014,09,12,20,19,14.80
2014,09,12,20,20,14.80
2014,09,12,20,21,13.50
2014,09,12,20,22,13.50
2014,09,12,20,23,13.50
2014,09,12,20,24,13.50
2014,09,12,20,25,13.50
2014,09,12,20,26,13.50
2014,09,12,20,27,13.50
2014,09,12,20,28,13.50
2014,09,12,20,29,13.50
2014,09,12,20,30,13.50
2014,09,12,20,31,13.50
2014,09,12,20,32,13.50
2014,09,12,20,33,13.50
2014,09,12,20,34,13.50
2014,09,12,20,35,13.50
2014,09,12,20,36,13.70
2014,09,12,20,37,13.70
2014,09,12,20,38,13.70
2014,09,12,20,39,13.70
2014,09,12,20,40,13.70
2014,09,12,20,41,13.70
2014,09,12,20,42,13.70
2014,09,12,20,43,13.70
2014,09,12,20,44,13.70
2014,09,12,20,45,13.70
2014,09,12,20,46,13.70
2014,09,12,20,47,13.70
2014,09,12,20,48,13.70
2014,09,12,20,49,13.70
2014,09,12,20,50,13.70
2014,09,12,20,51,13.90
2014,09,12,20,52,13.90
2014,09,12,20,53,13.90
2014,09,12,20,54,13.90
2014,09,12,20,55,13.90
2014,09,12,20,56,13.90
2014,09,12,20,57,13.90
2014,09,12,20,58,13.90
2014,09,12,20,59,13.90
2014,09,12,21,00,13.90
2014,09,12,21,01,13.90
2014,09,12,21,02,13.90
2014,09,12,21,03,13.90
2014,09,12,21,04,13.90
2014,09,12,21,05,13.90
2014,09,12,21,06,14.40
2014,09,12,21,07,14.40
2014,09,12,21,08,14.40
2014,09,12,21,09,14.40
2014,09,12,21,10,14.40
2014,09,12,21,11,14.40
2014,09,12,21,12,14.40
2014,09,12,21,13,14.40
2014,09,12,21,14,14.40
2014,09,12,21,15,14.40
2014,09,12,21,16,14.40
2014,09,12,21,17,14.40
2014,09,12,21,18,14.40
2014,09,12,21,19,14.40
2014,09,12,21,20,14.40
2014,09,12,21,21,14.90
2014,09,12,21,22,14.90
2014,09,12,21,23,14.90
2014,09,12,21,24,14.90
2014,09,12,21,25,14.90
2014,09,12,21,26,14.90
2014,09,12,21,27,14.90
2014,09,12,21,28,14.90
2014,09,12,21,29,14.90
2014,09,12,21,30,14.90
2014,09,12,21,31,14.90
2014,09,12,21,32,14.90
2014,09,12,21,33,14.90
2014,09,12,21,34,14.90
2014,09,12,21,35,14.90
2014,09,12,21,36,14.60
2014,09,12,21,37,14.60
2014,09,12,21,38,14.60
2014,09,12,21,39,14.60
2014,09,12,21,40,14.60
2014,09,12,21,41,14.60
2014,09,12,21,42,14.60
2014,09,12,21,43,14.60
2014,09,12,21,44,14.60
2014,09,12,21,45,14.60
2014,09,12,21,46,14.60
2014,09,12,21,47,14.60
2014,09,12,21,48,14.60
2014,09,12,21,49,14.60
2014,09,12,21,50,14.60
2014,09,12,21,51,13.80
2014,09,12,21,52,13.80
2014,09,12,21,53,13.80
2014,09,12,21,54,13.80
2014,09,12,21,55,13.80
2014,09,12,21,56,13.80
2014,09,12,21,57,13.80
2014,09,12,21,58,13.80
2014,09,12,21,59,13.80
2014,09,12,22,00,13.80
2014,09,12,22,01,13.80
2014,09,12,22,02,13.80
2014,09,12,22,03,13.80
2014,09,12,22,04,13.80
2014,09,12,22,05,13.80
2014,09,12,22,06,13.30
2014,09,12,22,07,13.30
2014,09,12,22,08,13.30
2014,09,12,22,09,13.30
2014,09,12,22,10,13.30
2014,09,12,22,11,13.30
2014,09,12,22,12,13.30
2014,09,12,22,13,13.30
2014,09,12,22,14,13.30
2014,09,12,22,15,13.30
2014,09,12,22,16,13.30
2014,09,12,22,17,13.30
2014,09,12,22,18,13.30
2014,09,12,22,19,13.30
2014,09,12,22,20,13.30
2014,09,12,22,21,13.90
2014,09,12,22,22,13.90
2014,09,12,22,23,13.90
2014,09,12,22,24,13.90
2014,09,12,22,25,13.90
2014,09,12,22,26,13.90
2014,09,12,22,27,13.90
2014,09,12,22,28,13.90
2014,09,12,22,29,13.90
2014,09,12,22,30,13.90
2014,09,12,22,31,13.90
2014,09,12,22,32,13.90
2014,09,12,22,33,13.90
2014,09,12,22,34,13.90
2014,09,12,22,35,13.90
2014,09,12,22,36,14.70
2014,09,12,22,37,14.70
2014,09,12,22,38,14.70
2014,09,12,22,39,14.70
2014,09,12,22,40,14.70
2014,09,12,22,41,14.70
2014,09,12,22,42,14.70
2014,09,12,22,43,14.70
2014,09,12,22,44,14.70
2014,09,12,22,45,14.70
2014,09,12,22,46,14.70
2014,09,12,22,47,14.70
2014,09,12,22,48,14.70
2014,09,12,22,49,14.70
2014,09,12,22,50,14.70
2014,09,12,22,51,13.80
2014,09,12,22,52,13.80
2014,09,12,22,53,13.80
2014,09,12,22,54,13.80
2014,09,12,22,55,13.80
2014,09,12,22,56,13.80
2014,09,12,22,57,13.80
2014,09,12,22,58,13.80
2014,09,12,22,59,13.80
2014,09,12,23,00,13.80
2014,09,12,23,01,13.80
2014,09,12,23,02,13.80
2014,09,12,23,03,13.80
2014,09,12,23,04,13.80
2014,09,12,23,05,13.80
2014,09,12,23,06,13.70
2014,09,12,23,07,13.70
2014,09,12,23,08,13.70
2014,09,12,23,09,13.70
2014,09,12,23,10,13.70
2014,09,12,23,11,13.70
2014,09,12,23,12,13.70
2014,09,12,23,13,13.70
2014,09,12,23,14,13.70
2014,09,12,23,15,13.70
2014,09,12,23,16,13.70
2014,09,12,23,17,13.70
2014,09,12,23,18,13.70
2014,09,12,23,19,13.70
2014,09,12,23,20,13.70
2014,09,12,23,21,13.90
2014,09,12,23,22,13.90
2014,09,12,23,23,13.90
2014,09,12,23,24,13.90
2014,09,12,23,25,13.90
2014,09,12,23,26,13.90
2014,09,12,23,27,13.90
2014,09,12,23,28,13.90
2014,09,12,23,29,13.90
2014,09,12,23,30,13.90
2014,09,12,23,31,13.90
2014,09,12,23,32,13.90
2014,09,12,23,33,13.90
2014,09,12,23,34,13.90
2014,09,12,23,35,13.90
2014,09,12,23,36,14.20
2014,09,12,23,37,14.20
2014,09,12,23,38,14.20
2014,09,12,23,39,14.20
2014,09,12,23,40,14.20
2014,09,12,23,41,14.20
2014,09,12,23,42,14.20
2014,09,12,23,43,14.20
2014,09,12,23,44,14.20
2014,09,12,23,45,14.20
2014,09,12,23,46,14.20
2014,09,12,23,47,14.20
2014,09,12,23,48,14.20
2014,09,12,23,49,14.20
2014,09,12,23,50,14.20
2014,09,12,23,51,14.30
2014,09,12,23,52,14.30
2014,09,12,23,53,14.30
2014,09,12,23,54,14.30
2014,09,12,23,55,14.30
2014,09,12,23,56,14.30
2014,09,12,23,57,14.30
2014,09,12,23,58,14.30
2014,09,12,23,59,14.30
